x

Northern Hawaii One - 245nm Ne Of Honolulu Hi (51000) Wave Buoy

10:50am - Thu 30th Mar 2017 All times are HST. -10 hours from GMT.

  • Sig Wave height 8.5ft
  • Swell Direction
  • Peak Period 14s
  • Average Period 7s
  • Wind
    18mph, 22mph gusts
  • Sea Temp 75°f
  • Air Temp 74°f
  • Sea Pressure 1021.4mb
  • Northern Hawaii One - 245nm Ne Of Honolulu Hi
  • Northern Hawaii One - 245nm Ne Of Honolulu Hi

More Historic Weather Station data

Upgrade to MSW Pro to gain access to the past 30 days of data for over 8000 Wavebouys and Weather Stations around the globe.

Join Pro

Comparision Forecast

View Surf forecast
   
Thu 03/30 10:50am 8.5ft 14s 7s 18 22 mph 1021.4mb 75f 74f
9:50am 8ft 15s 7s 18 22 mph 1021.7mb 75f 74f
8:50am 9ft 14s 7s 18 25 mph 1021.5mb 75f 74f
7:50am 9ft 14s 8s 18 20 mph 1021.4mb 75f 74f
6:50am 9ft 14s 8s 18 22 mph 1020.8mb 75f 74f
5:50am 10ft 14s 8s 16 20 mph 1020.6mb 75f 74f
4:50am 9ft 14s 8s 18 22 mph 1020.2mb 75f 74f
3:50am 9.5ft 14s 8s 18 22 mph 1020.2mb 75f 74f
2:50am 9.5ft 13s 8s 18 22 mph 1020.5mb 75f 74f
1:50am 9.5ft 13s 8s 16 20 mph 1021.3mb 75f 74f
12:50am 10ft 14s 8s 16 20 mph 1021.9mb 75f 74f
Wed 03/29 11:50pm 9ft 14s 8s 16 20 mph 1022.3mb 75f 74f
10:50pm 10ft 14s 8s 18 22 mph 1022.4mb 75f 74f
9:50pm 8ft 13s 7s 18 22 mph 1022.4mb 75f 74f
8:50pm 10ft 14s 8s 18 20 mph 1022mb 75f 74f
7:50pm 9ft 14s 8s 18 22 mph 1021.5mb 75f 75f
6:50pm 9.5ft 15s 8s 18 22 mph 1020.8mb 75f 75f
5:50pm 9.5ft 14s 8s 18 22 mph 1020.4mb 75f 75f
4:50pm 10ft 13s 8s 18 22 mph 1020mb 75f 75f
3:50pm 9ft 15s 7s 20 22 mph 1019.8mb 75f 75f
2:50pm 9ft 14s 7s 20 25 mph 1020.1mb 75f 75f
1:50pm 9.5ft 13s 7s 20 25 mph 1020.5mb 75f 75f
12:50pm 8.5ft 12s 7s 20 22 mph 1021mb 75f 75f
11:50am 8.5ft 13s 7s 18 25 mph 1021.6mb 75f 75f
10:50am 8ft 13s 7s 18 22 mph 1022mb 75f 74f
9:50am 8.5ft 13s 7s 20 25 mph 1022.1mb 75f 74f
8:50am 8.5ft 13s 7s 20 27 mph 1022.2mb 75f 74f
7:50am 7.5ft 12s 7s 20 25 mph 1021.8mb 75f 75f
6:50am 7.5ft 13s 8s 16 18 mph 1021.4mb 75f 74f
5:50am 8ft 13s 8s 16 22 mph 1021mb 75f 74f
4:50am 8ft 13s 7s 16 20 mph 1020.5mb 75f 74f
3:50am 7.5ft 14s 7s 16 20 mph 1020.3mb 75f 74f
2:50am 8.5ft 13s 8s 16 20 mph 1020.6mb 75f 74f
1:50am 8ft 13s 8s 16 20 mph 1021.1mb 75f 74f
12:50am 7.5ft 13s 7s 16 18 mph 1021.6mb 75f 74f
Tue 03/28 11:50pm 8ft 13s 8s 18 20 mph 1021.7mb 75f 74f
10:50pm 8.5ft 10s 8s 16 20 mph 1021.9mb 75f 74f
9:50pm 8ft 14s 8s 11 20 mph 1022mb 75f 73f
8:50pm 8ft 14s 8s 16 22 mph 1021.5mb 75f 75f
7:50pm 9ft 14s 9s 16 20 mph 1021.3mb 75f 74f
6:50pm 9ft 14s 8s 16 20 mph 1020.2mb 76f 74f
5:50pm 8.5ft 14s 8s 13 18 mph 1019.8mb 76f 75f
4:50pm 8.5ft 14s 8s 13 18 mph 1019.4mb 76f 75f
3:50pm 8.5ft 13s 8s 13 16 mph 1019.5mb 76f 74f
2:50pm 8.5ft 14s 8s 13 18 mph 1019.7mb 76f 74f
1:50pm 8.5ft 13s 8s 11 16 mph 1020.4mb 76f 74f
12:50pm 9ft 15s 8s 11 16 mph 1021.1mb 75f 74f
11:50am 8ft 14s 8s 11 16 mph 1022.1mb 75f 74f
10:50am 9ft 14s 9s 9 18 mph 1022.9mb 75f 72f
9:50am 9ft 15s 9s 9 13 mph 1023.1mb 75f 74f
8:50am 9ft 15s 8s 11 13 mph 1022.7mb 75f 74f
7:50am 9.5ft 15s 8s 13 18 mph 1022.1mb 75f 74f
4:50am 9ft 15s 8s 16 18 mph 1020.7mb 75f 73f
3:50am 10.5ft 15s 9s 13 18 mph 1020.7mb 75f 74f
2:50am 10ft 15s 9s 13 18 mph 1020.9mb 75f 74f
1:50am 9ft 15s 8s 13 18 mph 1021.4mb 75f 74f
12:50am 9.5ft 14s 8s 16 18 mph 1022mb 75f 74f
Mon 03/27 11:50pm 9.5ft 15s 9s 16 18 mph 1022.6mb 75f 74f
10:50pm 11ft 15s 9s 16 20 mph 1023.1mb 75f 74f
9:50pm 11ft 16s 9s 13 18 mph 1023.4mb 75f 74f
8:50pm 11ft 15s 9s 13 20 mph 1023.1mb 75f 74f
7:50pm 12ft 15s 10s 13 18 mph 1022.5mb 75f 74f
6:50pm 11.5ft 15s 10s 16 18 mph 1021.6mb 75f 74f
5:50pm 11ft 15s 9s 16 20 mph 1021mb 75f 75f
4:50pm 13ft 15s 11s 16 22 mph 1020.6mb 75f 75f
3:50pm 12ft 16s 10s 13 20 mph 1020.6mb 75f 75f
2:50pm 13ft 15s 10s 13 18 mph 1021mb 75f 75f
1:50pm 13ft 16s 10s 13 18 mph 1021.6mb 75f 75f
12:50pm 13ft 16s 10s 13 18 mph 1021.9mb 75f 74f
11:50am 11ft 16s 10s 13 20 mph 1022.8mb 75f 75f
10:50am 12ft 16s 10s 16 20 mph 1023.2mb 75f 75f
9:50am 13.5ft 15s 10s 16 20 mph 1023.6mb 75f 75f
8:50am 13.5ft 15s 11s 13 18 mph 1023.5mb 75f 75f
7:50am 11.5ft 16s 9s 13 18 mph 1023.2mb 75f 75f
6:50am 12ft 16s 10s 16 20 mph 1022.6mb 75f 74f
5:50am 12ft 15s 10s 13 18 mph 1022.5mb 75f 74f
4:50am 11ft 16s 9s 13 18 mph 1022.1mb 75f 74f
3:50am 12ft 16s 9s 16 20 mph 1021.8mb 75f 74f
2:50am 10ft 16s 8s 13 18 mph 1022mb 75f 74f
1:50am 10ft 16s 9s 16 20 mph 1022.3mb 75f 74f
12:50am 10ft 16s 9s 18 22 mph 1022.5mb 75f 74f
Sun 03/26 11:50pm 13ft 16s 10s 20 25 mph 1022.6mb 75f 74f
10:50pm 11ft 16s 9s 20 25 mph 1022.9mb 75f 74f
9:50pm 10.5ft 16s 9s 18 22 mph 1023.4mb 75f 74f